COSMOS 1161

Satellite information

Favourite Embed

Satellite Type and Status

PAYLOADIN ORBIT

Key statistics

Satellite COSMOS 1161 at a glance.

Uptime

16701

Days in orbit

Revolutions

≈ 12.5

Per day

Orbit

LEO

Low Earth Orbit

Inclination

74.0

Latest

Satellite identification and parameters

Extended collection of information and parameters for COSMOS 1161.

Object identification

Identified? True

Debris? False

Object name: COSMOS 1161

International designator: 1980-012F

Object number (NORAD): 11696

Object ID (CCSDS): 11696

Country: COMMONWEALTH OF INDEPENDENT STATES (CIS)

Current information (Y/N): Y

RCS size: MEDIUM

Orbital parameters

Period: 115.647 minutes

Inclination: 74.0181 deg

SMA: 7862.906 km

Apoapsis: 1502.239 km

Periapsis: 1467.303 km

RAAN: 103.1423 deg

Eccentricy: 0.00222156

Argument of periapsis: 210.4078 deg

Mean anomaly: 149.5683 deg

Mean motion: 12.45168615 rev/day

Mean motion (dot): 0.00000012 rev/day2

B* drag term: 0.00019260215 1/REarth

Two-line elements (TLE)

Creation date: Nov. 1, 2025, 7:40 p.m.

Reference frame: TEME

Reference center: EARTH

Epoch: Nov. 1, 2025, 12:05 p.m. UTC

TLE line 0: 0 COSMOS 1161

TLE line 1: 1 11696U 80012F 25305.50403401 .00000012 00000-0 19260-3 0 9990

TLE line 2: 2 11696 74.0181 103.1423 0022216 210.4078 149.5683 12.45168615 78274

Live tracking on map

Real-time ground track for satellite COSMOS 1161.

In-orbit conjunctions

There are no conjunctions computed for COSMOS 1161, at the moment. Check back to stay up to date, as we update our databases every day.

Go to all conjunctions

Associated space launch

Military communications satellites

COSMOS 1161 was lifted into orbit during the mission ‘Kosmos-3M | Strela-1M 185-192’, on board a Kosmos-3M space rocket.

The launch took place on Feb. 11, 1980, 11:32 p.m. from 132/2.

For more information about the launch, click the button.

Launch to space Kosmos-3M | Strela-1M 185-192
Kosmos-3M | Strela-1M 185-192

Agency: N/A

Status: Launch Successful

Launch date: Feb. 11, 1980, 11:32 p.m. UTC

Rocket: Kosmos-3M

Launch pad: 132/2

Location: Plesetsk Cosmodrome, Russian Federation

...

Latest news about this satellite

There are no fresh news available about this satellite. Check back as we update our databases every day.


Newsletter sign-up

Weekly statistics, charts and insights to help you stay on top of the space industry.